Weather reports worldwide

Advertisment
Friesoythe-Altenoythe, Germany (10210): temperature & dewpoint: 06.07.2020 15:00:00 - 12.07.2020 15:00:00 (CEST)Friesoythe-Altenoythe, Germany (10210): temperature 5cm & temperature -5cm: 06.07.2020 15:00:00 - 12.07.2020 15:00:00 (CEST)Friesoythe-Altenoythe, Germany (10210): temperature -20cm & temperature -100cm: 06.07.2020 15:00:00 - 12.07.2020 15:00:00 (CEST)Friesoythe-Altenoythe, Germany (10210): wind speed & gusts: 06.07.2020 15:00:00 - 12.07.2020 15:00:00 (CEST)Friesoythe-Altenoythe, Germany (10210): wind direction: 06.07.2020 15:00:00 - 12.07.2020 15:00:00 (CEST)Friesoythe-Altenoythe, Germany (10210): reduced air pressure: 06.07.2020 15:00:00 - 12.07.2020 15:00:00 (CEST)Friesoythe-Altenoythe, Germany (10210): visibility: 06.07.2020 15:00:00 - 12.07.2020 15:00:00 (CEST)Friesoythe-Altenoythe, Germany (10210): sunshine duration: 06.07.2020 15:00:00 - 12.07.2020 15:00:00 (CEST)Friesoythe-Altenoythe, Germany (10210): precipitation: 06.07.2020 15:00:00 - 12.07.2020 15:00:00 (CEST)
Date & Time tt [°C] td [°C] tt 5cm [°C] tt -5cm [°C] tt -20cm [°C] tt -100cm [°C] ff [km/h] ff [kn] fx [km/h] fx [kn] dd ppp [hPa] vv [km] sd [min] rr [mm]
12.07.2020 15:00:00 19,3 9,5 22,5 26,6 17,3 15,4 13 7 24 13 WNW 1028,5 70 53 0,0
12.07.2020 14:00:00 19,5 9,4 25,0 26,2 16,6 15,4 10 5 26 14 W 1028,4 75 41 0,0
12.07.2020 13:00:00 18,6 9,2 23,4 25,7 16,0 15,4 8 4 20 11 W 1028,5 72 54 0,0
12.07.2020 12:00:00 16,9 9,3 19,6 23,0 15,4 15,4 8 4 16 9 NW 1028,7 61 33 0,0
12.07.2020 11:00:00 17,0 9,1 21,4 21,8 14,9 15,4 7 4 16 9 W 1028,7 44 48 0,0
12.07.2020 10:00:00 15,8 10,0 18,0 19,0 14,6 15,4 9 5 15 8 WNW 1028,8 55 53 0,0
12.07.2020 09:00:00 14,7 11,3 16,1 15,2 14,6 15,4 6 3 9 5 W 1028,4 54 60 0,0
12.07.2020 08:00:00 12,5 11,4 13,3 11,8 14,7 15,4 5 3 7 4 WSW 1027,7 31 60 0,0
12.07.2020 07:00:00 9,8 9,7 10,1 10,4 15,0 15,4 4 2 5 3 WSW 1027,4 4,5 45 0,0
12.07.2020 06:00:00 7,5 7,5 6,7 10,1 15,3 15,4 5 3 6 3 SW 1027,1 0,2 0 0,0
12.07.2020 05:00:00 7,6 7,6 6,3 10,6 15,6 15,4 3 2 6 3 WSW 1026,9 0,2 0 0,0
12.07.2020 04:00:00 8,0 7,9 6,4 10,9 15,9 15,4 4 2 5 3 W 1026,9 0,6 0 0,0
12.07.2020 03:00:00 8,7 8,4 6,9 11,7 16,3 15,4 3 2 5 3 W 1026,9 32 0 0,0
12.07.2020 02:00:00 9,3 9,2 9,0 12,2 16,6 15,4 3 1 4 2 W 1026,7 32 0 0,0
12.07.2020 01:00:00 9,5 9,0 7,8 12,7 17,0 15,4 4 2 5 3 W 1026,5 24 0 0,0
12.07.2020 00:00:00 10,0 9,4 8,7 13,5 17,3 15,4 4 2 6 3 W 1026,5 47 0 0,0
11.07.2020 23:00:00 11,4 10,3 9,6 14,7 17,6 15,4 4 2 7 4 WNW 1026,3 69 0 0,0
11.07.2020 22:00:00 12,9 11,1 11,5 16,2 17,7 15,4 5 3 14 8 WNW 1025,9 75 22 0,0
11.07.2020 21:00:00 15,7 9,6 16,0 18,1 17,8 15,4 12 7 17 9 NW 1025,4 64 55 0,0
11.07.2020 20:00:00 16,5 10,7 17,3 19,7 17,8 15,5 11 6 20 11 W 1025,2 75 21 0,0
11.07.2020 19:00:00 17,2 10,5 19,4 20,4 17,6 15,5 13 7 22 12 WNW 1024,9 75 13 0,0
11.07.2020 18:00:00 17,2 10,4 18,5 22,7 17,3 15,5 14 8 29 16 NW 1024,7 67 38 0,0
11.07.2020 17:00:00 17,8 12,7 22,0 22,6 16,9 15,5 13 7 22 12 WSW 1024,5 75 19 0,0
11.07.2020 16:00:00 16,8 10,9 18,7 23,2 16,5 15,5 13 7 20 11 SW 1024,5 72 17 0,1
11.07.2020 15:00:00 16,1 11,4 18,2 23,7 16,1 15,5 8 4 31 17 WSW 1024,3 75 28 2,7
11.07.2020 14:00:00 16,5 11,1 18,4 21,9 15,8 15,5 13 7 19 10 W 1024,0 59 21 0,3
11.07.2020 13:00:00 12,9 11,7 13,0 18,2 15,3 15,5 11 6 44 24 NW 1024,1 8 12 3,3
11.07.2020 12:00:00 16,4 9,9 17,6 21,5 14,9 15,5 16 9 29 16 W 1023,3 75 46 0,0
11.07.2020 11:00:00 16,3 10,5 18,9 19,2 14,5 15,5 16 9 26 14 W 1023,1 53 40 0,0
11.07.2020 10:00:00 15,0 10,6 17,2 17,3 14,2 15,5 16 8 26 14 W 1022,7 53 57 0,0
11.07.2020 09:00:00 13,6 10,7 14,7 14,6 14,1 15,5 16 9 27 15 W 1022,5 50 49 0,1
11.07.2020 08:00:00 11,6 10,5 12,4 12,6 14,2 15,5 9 5 21 12 W 1022,2 20 5 0,1
11.07.2020 07:00:00 10,3 9,3 9,9 10,9 14,3 15,5 12 6 15 8 WSW 1021,7 50 5 0,0
11.07.2020 06:00:00 8,8 8,2 8,3 10,1 14,6 15,5 5 3 15 8 W 1021,3 32 0 0,0
11.07.2020 05:00:00 9,5 8,7 8,8 10,4 14,8 15,5 10 5 16 8 SW 1020,8 48 0 0,0
11.07.2020 04:00:00 9,7 8,8 8,7 10,7 15,0 15,5 9 5 16 8 SW 1020,5 50 0 0,0
11.07.2020 03:00:00 9,2 8,5 8,1 10,5 15,3 15,5 8 5 11 6 SW 1020,3 43 0 0,0
11.07.2020 02:00:00 9,6 8,9 8,5 11,0 15,6 15,5 8 5 14 8 W 1019,7 38 0 0,0
11.07.2020 01:00:00 9,9 8,7 8,7 11,3 15,9 15,5 11 6 14 7 SW 1019,3 43 0 0,0
11.07.2020 00:00:00 10,0 8,4 8,5 11,9 16,2 15,5 9 5 11 6 SW 1018,8 53 0 0,0
10.07.2020 23:00:00 9,9 8,5 8,4 12,8 16,5 15,5 8 5 10 5 W 1018,3 66 0 0,0
10.07.2020 22:00:00 11,3 8,8 9,9 13,9 16,6 15,6 9 5 24 13 WNW 1017,8 75 24 0,0
10.07.2020 21:00:00 14,1 8,7 14,0 15,8 16,7 15,6 16 9 33 18 NW 1017,4 73 59 0,0
10.07.2020 20:00:00 15,7 9,6 16,8 17,8 16,7 15,6 16 9 36 19 NW 1016,7 59 35 0,0
10.07.2020 19:00:00 16,2 10,3 17,9 18,4 16,6 15,6 13 7 29 15 NW 1016,1 75 23 0,0
10.07.2020 18:00:00 14,6 10,5 15,7 17,5 16,5 15,6 13 7 31 17 NNW 1015,6 48 0 0,0
10.07.2020 17:00:00 15,7 11,4 16,8 19,4 16,3 15,6 12 6 24 13 NW 1014,8 61 5 0,0
10.07.2020 16:00:00 15,2 11,6 16,3 20,3 16,1 15,6 16 9 26 14 NW 1014,0 50 18 0,0
10.07.2020 15:00:00 13,0 11,9 13,4 17,1 15,9 15,6 21 11 34 18 NW 1013,2 7 0 0,0
10.07.2020 14:00:00 15,3 11,8 16,7 19,3 15,7 15,6 17 9 31 17 NNW 1011,9 68 6 0,0
10.07.2020 13:00:00 13,9 11,8 15,0 17,0 15,6 15,6 19 10 32 17 NNW 1010,7 70 0 0,0
10.07.2020 12:00:00 13,1 12,6 14,5 16,2 15,5 15,6 18 10 29 16 NNW 1009,5 7 0 0,2
10.07.2020 11:00:00 13,0 12,3 13,6 15,6 15,5 15,6 16 9 29 16 N 1008,1 9 0 0,1
10.07.2020 10:00:00 13,0 12,5 13,6 15,2 15,5 15,6 11 6 21 12 N 1007,2 23 0 1,1
10.07.2020 09:00:00 12,4 12,1 12,9 14,5 15,6 15,6 10 6 24 13 NNE 1006,4 15 0 2,1
10.07.2020 08:00:00 12,4 12,1 13,0 14,2 15,6 15,6 12 6 27 14 NNE 1006,2 4,0 0 1,2
10.07.2020 07:00:00 12,8 12,6 12,9 14,2 15,7 15,6 16 9 26 14 NNE 1006,2 3,6 0 1,3
10.07.2020 06:00:00 13,1 13,1 13,3 14,3 15,8 15,6 6 3 11 6 NE 1006,2 5 0 1,4
10.07.2020 05:00:00 13,0 13,0 13,1 14,3 15,9 15,6 6 4 14 7 E 1006,9 2,2 0 0,7
10.07.2020 04:00:00 13,0 12,9 13,1 14,3 16,0 15,6 8 4 14 8 E 1007,6 2,8 0 0,8
10.07.2020 03:00:00 12,9 12,8 13,0 14,4 16,1 15,6 8 4 18 10 E 1008,7 3,2 0 0,5
10.07.2020 02:00:00 12,8 12,7 12,9 14,5 16,3 15,6 10 5 18 10 E 1009,2 3,9 0 0,7
10.07.2020 01:00:00 12,9 12,7 13,0 14,8 16,4 15,6 10 5 18 10 E 1010,2 3,2 0 0,1
10.07.2020 00:00:00 13,1 13,0 13,3 15,0 16,5 15,6 8 4 15 8 ENE 1010,6 4,0 0 0,6
09.07.2020 23:00:00 13,4 13,3 13,6 15,4 16,6 15,6 8 4 13 7 NE 1011,1 3,2 0 0,4
09.07.2020 22:00:00 13,5 13,4 13,8 15,8 16,6 15,6 6 4 12 6 ENE 1011,1 4,3 0 0,5
09.07.2020 21:00:00 13,7 13,5 14,0 16,3 16,6 15,6 6 3 10 6 ENE 1011,2 4,0 0 1,2
09.07.2020 20:00:00 13,8 13,5 14,3 16,9 16,6 15,6 7 4 9 5 NE 1011,4 2,9 0 1,2
09.07.2020 19:00:00 13,8 13,4 14,5 17,3 16,5 15,6 5 3 10 5 NE 1011,4 3,6 0 1,3
09.07.2020 18:00:00 13,8 13,2 14,8 17,8 16,4 15,6 7 4 11 6 NE 1011,4 6 0 0,8
09.07.2020 17:00:00 14,0 13,4 15,3 17,9 16,3 15,7 8 4 14 7 NE 1011,4 2,5 0 0,7
09.07.2020 16:00:00 13,7 13,1 14,7 17,4 16,2 15,7 8 5 16 9 NE 1011,5 8 0 0,2
09.07.2020 15:00:00 13,6 12,9 14,7 17,5 16,0 15,7 12 6 19 10 NE 1011,4 11 0 0,0
09.07.2020 14:00:00 13,5 12,8 15,0 17,6 15,9 15,7 13 7 25 13 NE 1011,0 12 0 0,1
09.07.2020 13:00:00 12,9 12,5 13,7 15,8 15,9 15,7 14 7 23 12 NNE 1011,2 14 0 1,1
09.07.2020 12:00:00 13,1 12,8 14,0 15,3 15,9 15,7 10 5 19 10 ENE 1010,8 2,0 0 0,8
09.07.2020 11:00:00 12,8 12,5 13,3 14,8 16,0 15,7 8 4 23 12 E 1011,0 2,7 0 1,0
09.07.2020 10:00:00 12,5 12,2 12,8 14,3 16,1 15,7 13 7 27 14 E 1011,3 7 0 2,9
09.07.2020 09:00:00 12,4 12,2 12,8 14,2 16,2 15,7 11 6 21 11 ENE 1012,1 5 0 2,8
09.07.2020 08:00:00 12,1 11,9 12,4 14,1 16,3 15,7 9 5 16 8 E 1012,8 2,6 0 1,3
09.07.2020 07:00:00 11,6 11,4 11,9 13,9 16,4 15,7 7 4 14 8 ENE 1013,6 3,1 0 0,6
09.07.2020 06:00:00 11,4 11,2 11,6 13,8 16,6 15,7 8 4 16 9 ENE 1014,0 5 0 1,0
09.07.2020 05:00:00 11,5 11,1 11,6 14,0 16,8 15,7 9 5 17 9 ENE 1014,4 8 0 0,4
09.07.2020 04:00:00 11,7 11,0 11,7 14,3 16,9 15,7 8 4 18 10 E 1014,7 4,0 0 0,4
09.07.2020 03:00:00 12,9 10,5 12,5 14,7 17,1 15,7 9 5 13 7 NE 1015,4 12 0 0,0
09.07.2020 02:00:00 13,2 11,4 13,2 15,1 17,2 15,7 5 3 8 5 E 1015,3 36 0 0,0
09.07.2020 01:00:00 13,3 11,5 13,5 15,3 17,4 15,7 5 3 9 5 E 1015,8 48 0 0,0
09.07.2020 00:00:00 13,6 11,4 13,6 15,6 17,6 15,7 5 3 8 4 ENE 1016,2 51 0 0,0
08.07.2020 23:00:00 13,7 11,5 13,4 15,9 17,7 15,7 5 3 8 5 ENE 1016,1 57 0 0,0
08.07.2020 22:00:00 14,5 11,6 14,3 16,7 17,8 15,7 6 4 11 6 ENE 1016,2 66 0 0,0
08.07.2020 21:00:00 15,0 11,9 15,6 17,7 17,8 15,7 7 4 12 7 NE 1016,0 49 0 0,0
08.07.2020 20:00:00 16,0 11,2 16,7 19,1 17,8 15,7 2 1 6 3 ESE 1015,9 75 0 0,0
08.07.2020 19:00:00 16,0 10,2 17,5 20,5 17,6 15,8 5 3 9 5 SE 1015,9 75 0 0,0
08.07.2020 18:00:00 16,0 10,8 17,8 20,5 17,4 15,8 4 2 11 6 S 1016,0 72 0 0,0
08.07.2020 17:00:00 16,0 9,9 20,6 21,9 17,2 15,8 4 2 9 5 N 1016,1 75 0 0,0
08.07.2020 16:00:00 15,3 10,0 18,6 20,9 16,9 15,8 7 4 11 6 W 1016,0 70 0 0,0
08.07.2020 15:00:00 15,2 10,0 17,5 20,3 16,7 15,8 4 2 11 6 WSW 1015,9 75 0 0,0
08.07.2020 14:00:00 15,0 10,0 17,0 20,1 16,4 15,8 8 5 21 11 WSW 1015,7 70 0 0,0
08.07.2020 13:00:00 15,3 8,9 18,1 20,6 16,1 15,8 9 5 13 7 W 1015,5 57 0 0,0
08.07.2020 12:00:00 14,9 8,8 17,1 19,7 15,8 15,8 6 3 10 6 W 1015,4 62 0 0,0
08.07.2020 11:00:00 14,9 8,7 18,0 20,0 15,6 15,8 4 2 11 6 NNW 1015,0 75 4 0,0
08.07.2020 10:00:00 13,8 10,0 15,7 17,2 15,4 15,8 5 3 10 6 W 1015,1 50 0 0,0
08.07.2020 09:00:00 12,7 9,9 14,0 15,8 15,3 15,8 8 4 12 6 SW 1014,9 59 0 0,0
08.07.2020 08:00:00 12,4 10,7 13,4 14,6 15,3 15,8 8 4 13 7 SW 1014,8 43 0 0,0
08.07.2020 07:00:00 12,0 11,5 12,3 13,5 15,4 15,8 7 4 11 6 SW 1014,8 14 0 0,0
08.07.2020 06:00:00 11,4 11,0 11,4 12,7 15,5 15,8 6 4 10 5 SW 1014,9 15 0 0,0
08.07.2020 05:00:00 11,1 10,7 10,8 12,6 15,7 15,8 6 3 11 6 SW 1015,0 18 0 0,0
08.07.2020 04:00:00 11,2 10,7 11,0 12,8 15,8 15,8 6 4 8 5 WSW 1015,5 20 0 0,0
08.07.2020 03:00:00 11,3 10,7 11,1 12,9 16,0 15,8 5 3 9 5 WSW 1015,9 30 0 0,0
08.07.2020 02:00:00 11,3 10,6 11,0 13,0 16,1 15,8 6 4 11 6 SW 1016,0 32 0 0,0
08.07.2020 01:00:00 11,2 10,4 10,9 13,2 16,3 15,8 6 3 12 6 WSW 1016,4 44 0 0,1
08.07.2020 00:00:00 11,6 10,1 11,1 13,4 16,5 15,9 9 5 16 9 WNW 1016,9 36 0 0,1
07.07.2020 23:00:00 12,2 10,2 11,5 13,8 16,6 15,9 11 6 19 10 WNW 1017,1 26 0 0,1
07.07.2020 22:00:00 12,5 10,1 11,7 14,1 16,8 15,9 11 6 26 14 W 1017,0 32 0 0,2
07.07.2020 21:00:00 14,4 8,9 14,1 14,9 16,9 15,9 18 10 29 16 WNW 1016,9 65 0 0,0
07.07.2020 20:00:00 14,9 9,2 15,0 15,8 16,9 15,9 14 7 30 16 NW 1017,2 67 0 0,0
07.07.2020 19:00:00 15,7 7,9 16,2 16,7 16,9 15,9 18 10 34 18 WNW 1017,2 61 0 0,0
07.07.2020 18:00:00 15,8 8,5 16,7 17,1 16,8 15,9 16 9 43 23 NW 1017,5 70 0 0,0
07.07.2020 17:00:00 16,4 7,6 17,2 18,6 16,7 15,9 29 16 44 24 W 1017,6 60 3 0,0
07.07.2020 16:00:00 15,2 11,6 15,9 18,1 16,6 15,9 18 10 34 18 W 1017,5 55 1 0,1
07.07.2020 15:00:00 14,7 12,1 14,6 17,4 16,5 15,9 15 8 43 23 W 1017,5 32 0 0,1
07.07.2020 14:00:00 16,8 9,4 18,0 18,9 16,2 15,9 22 12 38 21 SW 1017,3 74 0 0,0
07.07.2020 13:00:00 16,8 8,7 19,0 19,7 15,9 15,9 20 11 39 21 SSW 1017,8 62 5 0,0
07.07.2020 12:00:00 16,8 9,4 19,4 19,8 15,6 15,9 23 12 35 19 SSW 1018,2 45 11 0,0
07.07.2020 11:00:00 16,1 10,1 18,6 19,0 15,3 15,9 17 9 27 14 SW 1018,9 47 9 0,0
07.07.2020 10:00:00 14,6 10,0 16,4 17,3 15,1 15,9 15 8 22 12 SW 1019,3 42 6 0,0
07.07.2020 09:00:00 13,6 9,6 15,1 15,2 15,0 15,9 16 8 20 11 WSW 1019,4 43 52 0,0
07.07.2020 08:00:00 12,3 9,7 13,4 12,1 15,2 15,9 9 5 16 9 WSW 1019,6 41 59 0,0
07.07.2020 07:00:00 10,3 8,9 10,4 10,8 15,4 15,9 10 5 16 9 WSW 1019,7 32 46 0,0
07.07.2020 06:00:00 9,3 8,4 8,3 10,4 15,6 15,9 11 6 19 10 SW 1019,4 28 0 0,0
07.07.2020 05:00:00 9,8 8,8 8,7 10,9 15,9 15,9 11 6 16 9 SW 1019,3 27 0 0,0
07.07.2020 04:00:00 9,8 8,8 8,4 10,9 16,2 15,9 10 5 16 9 WSW 1019,4 28 0 0,0
07.07.2020 03:00:00 10,5 9,3 9,5 11,5 16,4 15,9 13 7 20 11 WSW 1019,7 29 0 0,0
07.07.2020 02:00:00 10,8 9,4 10,0 11,9 16,7 15,9 13 7 23 13 WSW 1019,6 30 0 0,0
07.07.2020 01:00:00 11,1 9,8 10,2 12,3 17,0 15,9 11 6 16 9 WSW 1019,4 26 0 0,0
07.07.2020 00:00:00 11,7 10,6 10,6 13,2 17,3 15,9 11 6 18 10 WSW 1019,0 24 0 0,0
06.07.2020 23:00:00 12,9 11,0 12,4 14,2 17,5 15,9 14 7 26 14 WNW 1018,5 28 0 0,0
06.07.2020 22:00:00 13,7 10,5 13,1 14,9 17,7 15,9 16 8 34 18 WNW 1017,9 32 0 0,0
06.07.2020 21:00:00 13,9 11,0 13,5 16,0 17,9 15,9 14 8 27 15 W 1017,2 35 9 0,0
06.07.2020 20:00:00 13,8 10,0 13,3 16,8 18,0 15,9 23 13 39 21 NW 1016,7 32 13 0,0
06.07.2020 19:00:00 15,0 9,5 15,3 18,1 18,0 15,9 26 14 46 25 NW 1015,9 67 28 0,0
06.07.2020 18:00:00 16,0 12,1 16,5 19,4 17,8 15,9 24 13 46 25 WNW 1014,9 35 30 0,7
06.07.2020 17:00:00 16,4 11,5 18,7 21,3 17,7 16,0 26 14 61 33 WNW 1014,2 69 35 0,8
06.07.2020 16:00:00 16,9 9,9 20,2 20,7 17,5 16,0 31 17 62 33 WNW 1013,7 68 35 0,0
06.07.2020 15:00:00 17,0 11,3 20,2 20,4 17,4 16,0 30 16 49 26 WNW 1012,8 64 27 0,0

tt = temperature
td = dewpoint
tt 5cm = temperature 5cm
tt -5cm = temperature -5cm
tt -20cm = temperature -20cm
tt -100cm = temperature -100cm
ff = wind speed
fx = gusts
dd = wind direction
ppp = reduced air pressure
vv = visibility
sd = sunshine duration
rr = precipitation

Next stations